Date String (YYYY-MM-DD hh:mm:ss) UTC,Instrument flags,Ambient pressure (hPa),Sample flow (lpm),Bypass flow (lpm),Sample temperature (°C),Ambient temperature (°C),ASC tube jacket temperature (°C),LED temperature (°C),Box temperature (°C),Sample RH (%),Span deviation,Mass concentration (μg/m³),Mass concentration (μg/m³),Mass concentration (μg/m³)
DateTimeUTC,F1_M11,P_M11,Q1_M11,Q2_M11,T1_M11,T2_M11,T3_M11,T4_M11,T5_M11,U1_M11,ZSPAN_M11,X0_M11,X2_M11,X1_M11
2022-05-01 08:00:00,,0826.3,5.02,0.00,27.8,26.7,00.0,36.7,29.5,10.4,0000.0,0015.88,0005.13,0003.63
2022-05-01 08:01:00,,0826.3,5.00,0.00,27.8,26.7,00.0,36.7,29.5,10.4,0000.0,0015.25,0005.14,0003.63
2022-05-01 08:02:00,,0826.3,4.99,0.00,27.8,26.7,00.0,36.7,29.5,10.5,0000.0,0015.03,0005.12,0003.63
2022-05-01 08:03:00,,0826.3,5.03,0.00,27.7,26.7,00.0,36.7,29.5,10.7,0000.0,0015.35,0005.09,0003.62
2022-05-01 08:04:00,,0826.3,4.99,0.00,27.7,26.8,00.0,36.7,29.5,10.8,0000.0,0015.43,0005.10,0003.63
2022-05-01 08:05:00,,0826.3,5.00,0.00,27.7,26.7,00.0,36.7,29.5,10.8,0000.0,0015.73,0005.12,0003.63
2022-05-01 08:06:00,,0826.3,5.01,0.00,27.7,26.7,00.0,36.7,29.5,10.9,0000.0,0015.76,0005.13,0003.63
2022-05-01 08:07:00,,0826.3,4.99,0.00,27.7,26.7,00.0,36.7,29.5,10.8,0000.0,0017.18,0005.16,0003.64
2022-05-01 08:08:00,,0826.3,4.99,0.00,27.7,26.7,00.0,36.7,29.5,10.8,0000.0,0017.86,0005.14,0003.65
2022-05-01 08:09:00,,0826.3,5.01,0.00,27.7,26.7,00.0,36.7,29.5,10.8,0000.0,0017.82,0005.07,0003.65
2022-05-01 08:10:00,,0826.3,4.99,0.00,27.7,26.7,00.0,36.7,29.5,10.8,0000.0,0016.82,0005.04,0003.65
2022-05-01 08:11:00,,0826.3,4.99,0.00,27.7,26.7,00.0,36.7,29.4,10.8,0000.0,0016.72,0005.03,0003.65
2022-05-01 08:12:00,,0826.2,5.01,0.00,27.7,26.7,00.0,36.7,29.4,10.8,0000.0,0016.50,0005.03,0003.65
2022-05-01 08:13:00,,0826.2,5.01,0.00,27.7,26.6,00.0,36.7,29.4,11.1,0000.0,0015.74,0005.00,0003.65
2022-05-01 08:14:00,,0826.3,4.99,0.00,27.7,26.6,00.0,36.7,29.4,11.0,0000.0,0015.34,0004.99,0003.66
2022-05-01 08:15:00,,0826.2,5.00,0.00,27.7,26.6,00.0,36.7,29.4,11.0,0000.0,0016.10,0004.99,0003.66
2022-05-01 08:16:00,,0826.2,5.01,0.00,27.7,26.7,00.0,36.7,29.4,11.1,0000.0,0015.66,0004.99,0003.66
2022-05-01 08:17:00,,0826.2,4.99,0.00,27.7,26.7,00.0,36.7,29.4,11.3,0000.0,0014.84,0004.96,0003.67
2022-05-01 08:18:00,,0826.3,4.99,0.00,27.7,26.7,00.0,36.6,29.4,11.2,0000.0,0013.38,0004.88,0003.67
2022-05-01 08:19:00,,0826.2,5.01,0.00,27.7,26.7,00.0,36.6,29.4,11.2,0000.0,0013.87,0004.89,0003.67
2022-05-01 08:20:00,,0826.2,5.00,0.00,27.7,26.7,00.0,36.6,29.4,11.3,0000.0,0013.87,0004.91,0003.66
2022-05-01 08:21:00,,0826.1,4.99,0.00,27.7,26.7,00.0,36.6,29.4,11.3,0000.0,0013.68,0004.91,0003.68
2022-05-01 08:22:00,,0826.1,5.00,0.00,27.7,26.7,00.0,36.6,29.4,11.4,0000.0,0014.03,0004.91,0003.69
2022-05-01 08:23:00,,0826.1,5.01,0.00,27.7,26.7,00.0,36.6,29.4,11.4,0000.0,0014.68,0004.92,0003.69
2022-05-01 08:24:00,,0826.2,5.00,0.00,27.7,26.6,00.0,36.6,29.4,11.6,0000.0,0015.02,0004.88,0003.70
2022-05-01 08:25:00,,0826.2,4.99,0.00,27.6,26.5,00.0,36.6,29.4,11.5,0000.0,0016.03,0004.86,0003.70
2022-05-01 08:26:00,,0826.2,5.02,0.00,27.6,26.5,00.0,36.6,29.4,11.5,0000.0,0015.28,0004.86,0003.70
2022-05-01 08:27:00,,0826.1,5.00,0.00,27.6,26.5,00.0,36.6,29.3,11.6,0000.0,0015.19,0004.80,0003.70
2022-05-01 08:28:00,,0826.1,4.99,0.00,27.6,26.5,00.0,36.6,29.3,11.6,0000.0,0016.94,0004.79,0003.70
2022-05-01 08:29:00,,0826.1,5.01,0.00,27.6,26.5,00.0,36.6,29.3,11.6,0000.0,0017.64,0004.82,0003.70
2022-05-01 08:30:00,,0826.1,5.00,0.00,27.6,26.6,00.0,36.6,29.3,11.6,0000.0,0016.85,0004.82,0003.70
2022-05-01 08:31:00,,0826.1,4.99,0.00,27.6,26.6,00.0,36.6,29.3,11.6,0000.0,0016.51,0004.75,0003.71
2022-05-01 08:32:00,,0826.1,4.99,0.00,27.6,26.5,00.0,36.6,29.3,11.7,0000.0,0016.49,0004.75,0003.70
2022-05-01 08:33:00,,0826.1,5.02,0.00,27.5,26.5,00.0,36.5,29.3,11.6,0000.0,0016.23,0004.74,0003.69
2022-05-01 08:34:00,,0826.1,4.99,0.00,27.5,26.5,00.0,36.5,29.3,11.6,0000.0,0015.46,0004.67,0003.68
2022-05-01 08:35:00,,0826.1,4.99,0.00,27.5,26.5,00.0,36.5,29.3,11.6,0000.0,0015.77,0004.72,0003.69
2022-05-01 08:36:00,,0826.1,5.01,0.00,27.5,26.5,00.0,36.5,29.3,11.6,0000.0,0015.07,0004.74,0003.68
2022-05-01 08:37:00,,0826.1,5.01,0.00,27.5,26.5,00.0,36.5,29.3,11.6,0000.0,0015.31,0004.75,0003.69
2022-05-01 08:38:00,,0826.1,4.99,0.00,27.5,26.5,00.0,36.5,29.3,11.6,0000.0,0015.11,0004.74,0003.69
2022-05-01 08:39:00,,0826.1,5.02,0.00,27.5,26.5,00.0,36.5,29.3,11.6,0000.0,0013.24,0004.76,0003.70
2022-05-01 08:40:00,,0826.1,4.99,0.00,27.5,26.5,00.0,36.5,29.3,11.5,0000.0,0012.21,0004.75,0003.70
2022-05-01 08:41:00,,0826.1,4.99,0.00,27.5,26.5,00.0,36.5,29.3,11.6,0000.0,0012.20,0004.76,0003.69
2022-05-01 08:42:00,,0826.1,5.02,0.00,27.5,26.5,00.0,36.5,29.3,11.7,0000.0,0011.46,0004.77,0003.69
2022-05-01 08:43:00,,0826.1,5.00,0.00,27.5,26.5,00.0,36.5,29.3,11.6,0000.0,0011.34,0004.75,0003.69
2022-05-01 08:44:00,,0826.1,4.99,0.00,27.5,26.5,00.0,36.5,29.3,11.7,0000.0,0011.08,0004.75,0003.68
2022-05-01 08:45:00,,0826.1,4.99,0.00,27.5,26.5,00.0,36.5,29.3,11.7,0000.0,0010.85,0004.72,0003.68
2022-05-01 08:46:00,,0826.0,5.00,0.00,27.5,26.5,00.0,36.5,29.3,11.7,0000.0,0010.14,0004.67,0003.67
2022-05-01 08:47:00,,0826.0,5.00,0.00,27.5,26.5,00.0,36.5,29.3,11.7,0000.0,0009.78,0004.64,0003.67
2022-05-01 08:48:00,,0826.0,4.99,0.00,27.5,26.5,00.0,36.5,29.3,11.7,0000.0,0009.23,0004.61,0003.65
2022-05-01 08:49:00,,0826.0,5.01,0.00,27.5,26.5,00.0,36.5,29.3,11.7,0000.0,0009.40,0004.63,0003.64
2022-05-01 08:50:00,,0826.0,5.00,0.00,27.5,26.5,00.0,36.5,29.3,11.7,0000.0,0010.16,0004.61,0003.63
2022-05-01 08:51:00,,0826.0,4.99,0.00,27.5,26.5,00.0,36.4,29.3,11.8,0000.0,0010.55,0004.61,0003.62
2022-05-01 08:52:00,,0826.0,5.01,0.00,27.5,26.5,00.0,36.4,29.3,11.7,0000.0,0010.57,0004.60,0003.62
2022-05-01 08:53:00,,0826.1,5.01,0.00,27.5,26.5,00.0,36.4,29.3,11.7,0000.0,0010.63,0004.62,0003.63
2022-05-01 08:54:00,,0826.0,4.99,0.00,27.5,26.5,00.0,36.4,29.3,11.7,0000.0,0011.08,0004.61,0003.62
2022-05-01 08:55:00,,0826.0,4.99,0.00,27.5,26.5,00.0,36.4,29.3,11.7,0000.0,0011.31,0004.64,0003.63
2022-05-01 08:56:00,,0826.0,5.02,0.00,27.5,26.5,00.0,36.4,29.3,11.6,0000.0,0011.70,0004.67,0003.64
2022-05-01 08:57:00,,0826.0,4.99,0.00,27.5,26.5,00.0,36.4,29.3,11.1,0000.0,0012.05,0004.70,0003.65
2022-05-01 08:58:00,,0826.0,4.99,0.00,27.5,26.5,00.0,36.4,29.3,11.0,0000.0,0012.16,0004.69,0003.64
2022-05-01 08:59:00,,0826.0,5.02,0.00,27.5,26.5,00.0,36.4,29.3,11.3,0000.0,0013.20,0004.66,0003.64
